Simultaneous Nadir Overpasses (SNOs) Predictions

Prediction of SNOs between GOES-15 and NOAA-20 Satellite Orbit:

Table of predicted SNOs for the next 14.0 days since TLE Epoch: 11/16/2024
Index Date Time (GOES-15) GOES-15 Lat,Lon NOAA-20 Lat,Lon Distance(km) Time Diff (sec)
1 11/16/2024 09:03:32 -0.08, 61.62 0.75, 65.22 411.17 80
2 11/17/2024 21:25:17 0.06, 61.60 0.44, 59.96 187.77 80
3 11/18/2024 21:03:52 0.07, 61.63 -0.59, 64.49 326.72 80
4 11/20/2024 09:25:46 -0.05, 61.71 -0.62, 59.20 286.48 80
5 11/21/2024 09:09:41 -0.06, 61.73 0.42, 63.73 229.00 80
6 11/22/2024 21:31:26 0.03, 61.70 0.75, 58.47 368.02 80
7 11/23/2024 21:10:00 0.04, 61.72 -0.23, 63.01 146.54 80
8 11/25/2024 09:31:55 -0.02, 61.82 -0.91, 57.70 468.39 80
9 11/26/2024 09:15:48 -0.03, 61.83 0.08, 62.24 47.14 80
10 11/28/2024 21:18:47 0.02, 61.82 0.08, 61.52 33.97 80
11 11/29/2024 20:57:21 0.04, 61.85 -0.92, 66.06 480.10 80
